EN

Hourly Weather Abbottabad

Today, 2 December, Wednesday

Time Temperature Precipitation Wind Pressure Humidity
00:00 +13°C° 0 mm 2 mps 659 mmHg 47%
01:00 +12°C° 0 mm 2 mps 658 mmHg 46%
02:00 +12°C° 0 mm 2 mps 658 mmHg 46%
03:00 +12°C° 0 mm 2 mps 658 mmHg 45%
04:00 +12°C° 0 mm 2 mps 658 mmHg 45%
05:00 +10°C° 0 mm 2 mps 658 mmHg 44%
06:00 +12°C° 0 mm 2 mps 658 mmHg 43%
07:00 +12°C° 0 mm 2 mps 658 mmHg 43%
08:00 +12°C° 0 mm 2 mps 658 mmHg 43%
09:00 +15°C° 0 mm 2 mps 659 mmHg 38%
10:00 +18°C° 0 mm 1 mps 660 mmHg 33%
11:00 +21°C° 0 mm 1 mps 660 mmHg 29%
12:00 +21°C° 0 mm 1 mps 660 mmHg 27%
13:00 +22°C° 0 mm 1 mps 659 mmHg 26%
14:00 +22°C° 0 mm 1 mps 659 mmHg 25%
15:00 +20°C° 0 mm 1 mps 658 mmHg 30%
16:00 +18°C° 0 mm 1 mps 657 mmHg 35%
17:00 +14°C° 0 mm 0 mps 656 mmHg 40%
18:00 +14°C° 0 mm 1 mps 656 mmHg 40%
19:00 +14°C° 0 mm 1 mps 656 mmHg 40%
20:00 +13°C° 0 mm 2 mps 656 mmHg 40%
21:00 +13°C° 0 mm 2 mps 656 mmHg 40%
22:00 +13°C° 0 mm 2 mps 656 mmHg 40%
23:00 +12°C° 0 mm 2 mps 656 mmHg 41%

Tomorrow, 3 December, Thursday

Time Temperature Precipitation Wind Pressure Humidity
00:00 +12°C° 0 mm 2 mps 656 mmHg 40%
01:00 +12°C° 0 mm 2 mps 655 mmHg 39%
02:00 +10°C° 0 mm 2 mps 655 mmHg 38%
03:00 +10°C° 0 mm 2 mps 655 mmHg 38%
04:00 +10°C° 0 mm 2 mps 655 mmHg 38%
05:00 +10°C° 0 mm 2 mps 655 mmHg 37%
06:00 +10°C° 0 mm 2 mps 655 mmHg 37%
07:00 +10°C° 0 mm 2 mps 656 mmHg 36%
08:00 +12°C° 0 mm 2 mps 656 mmHg 36%
09:00 +14°C° 0 mm 2 mps 657 mmHg 32%
10:00 +17°C° 0 mm 2 mps 658 mmHg 28%
11:00 +20°C° 0 mm 1 mps 659 mmHg 24%
12:00 +21°C° 0 mm 1 mps 659 mmHg 24%
13:00 +21°C° 0 mm 1 mps 658 mmHg 24%
14:00 +22°C° 0 mm 1 mps 658 mmHg 23%
15:00 +20°C° 0 mm 1 mps 657 mmHg 28%
16:00 +16°C° 0 mm 1 mps 656 mmHg 33%
17:00 +13°C° 0 mm 0 mps 656 mmHg 38%
18:00 +14°C° 0 mm 1 mps 656 mmHg 39%
19:00 +13°C° 0 mm 1 mps 656 mmHg 40%
20:00 +13°C° 0 mm 1 mps 657 mmHg 41%
21:00 +12°C° 0 mm 1 mps 656 mmHg 41%
22:00 +12°C° 0 mm 2 mps 656 mmHg 41%
23:00 +12°C° 0 mm 2 mps 656 mmHg 42%

Day after tomorrow, 4 December, Friday

Time Temperature Precipitation Wind Pressure Humidity
00:00 +12°C° 0 mm 2 mps 656 mmHg 41%
01:00 +10°C° 0 mm 2 mps 656 mmHg 40%
02:00 +10°C° 0 mm 2 mps 655 mmHg 39%
03:00 +10°C° 0 mm 2 mps 655 mmHg 38%
04:00 +10°C° 0 mm 2 mps 655 mmHg 38%
05:00 +9°C° 0 mm 2 mps 654 mmHg 37%
06:00 +10°C° 0 mm 2 mps 655 mmHg 37%
07:00 +10°C° 0 mm 2 mps 655 mmHg 37%
08:00 +12°C° 0 mm 2 mps 656 mmHg 38%
09:00 +14°C° 0 mm 2 mps 656 mmHg 34%
10:00 +16°C° 0 mm 1 mps 657 mmHg 30%
11:00 +19°C° 0 mm 1 mps 658 mmHg 27%
12:00 +20°C° 0 mm 1 mps 658 mmHg 27%
13:00 +20°C° 0 mm 1 mps 657 mmHg 27%
14:00 +20°C° 0 mm 1 mps 657 mmHg 27%
15:00 +18°C° 0 mm 1 mps 656 mmHg 31%
16:00 +16°C° 0 mm 1 mps 655 mmHg 35%
17:00 +13°C° 0 mm 0 mps 655 mmHg 39%
18:00 +14°C° 0 mm 1 mps 655 mmHg 40%
19:00 +13°C° 0 mm 1 mps 655 mmHg 41%
20:00 +13°C° 0 mm 1 mps 655 mmHg 42%
21:00 +13°C° 0 mm 1 mps 655 mmHg 43%
22:00 +12°C° 0 mm 1 mps 655 mmHg 44%
23:00 +12°C° 0 mm 2 mps 655 mmHg 45%

5 December, Saturday

Time Temperature Precipitation Wind Pressure Humidity
00:00 +10°C° 0 mm 2 mps 655 mmHg 46%
01:00 +10°C° 0 mm 2 mps 655 mmHg 47%
02:00 +10°C° 0 mm 2 mps 655 mmHg 48%
03:00 +10°C° 0 mm 2 mps 654 mmHg 49%
04:00 +9°C° 0 mm 2 mps 654 mmHg 51%
05:00 +9°C° 0 mm 2 mps 654 mmHg 52%
06:00 +9°C° 0 mm 2 mps 655 mmHg 53%
07:00 +10°C° 0 mm 2 mps 655 mmHg 53%
08:00 +10°C° 0 mm 2 mps 656 mmHg 54%
09:00 +13°C° 0 mm 2 mps 656 mmHg 48%
10:00 +15°C° 0 mm 2 mps 657 mmHg 42%
11:00 +18°C° 0 mm 1 mps 658 mmHg 36%
12:00 +18°C° 0 mm 1 mps 657 mmHg 37%
13:00 +17°C° 0 mm 2 mps 657 mmHg 38%
14:00 +16°C° 0 mm 2 mps 656 mmHg 39%
15:00 +15°C° 0 mm 2 mps 656 mmHg 43%
16:00 +14°C° 0 mm 2 mps 655 mmHg 47%
17:00 +13°C° 0 mm 2 mps 655 mmHg 52%
18:00 +12°C° 0 mm 2 mps 655 mmHg 54%
19:00 +10°C° 0 mm 2 mps 655 mmHg 55%
20:00 +10°C° 0 mm 2 mps 655 mmHg 57%
21:00 +10°C° 0 mm 2 mps 655 mmHg 56%
22:00 +9°C° 0 mm 2 mps 655 mmHg 56%
23:00 +9°C° 0 mm 2 mps 655 mmHg 55%

6 December, Sunday

Time Temperature Precipitation Wind Pressure Humidity
00:00 +9°C° 0 mm 2 mps 656 mmHg 54%
01:00 +9°C° 0 mm 2 mps 656 mmHg 52%
02:00 +9°C° 0 mm 2 mps 656 mmHg 51%
03:00 +9°C° 0 mm 2 mps 656 mmHg 50%
04:00 +9°C° 0 mm 2 mps 656 mmHg 50%
05:00 +9°C° 0 mm 2 mps 656 mmHg 50%
06:00 +9°C° 0 mm 2 mps 656 mmHg 49%
07:00 +10°C° 0 mm 2 mps 657 mmHg 49%
08:00 +10°C° 0 mm 2 mps 657 mmHg 49%
09:00 +13°C° 0 mm 2 mps 658 mmHg 44%
10:00 +15°C° 0 mm 1 mps 659 mmHg 38%
11:00 +18°C° 0 mm 1 mps 660 mmHg 33%
12:00 +19°C° 0 mm 1 mps 660 mmHg 31%
13:00 +19°C° 0 mm 1 mps 659 mmHg 30%
14:00 +19°C° 0 mm 1 mps 659 mmHg 29%
15:00 +18°C° 0 mm 1 mps 658 mmHg 34%
16:00 +14°C° 0 mm 0 mps 658 mmHg 40%
17:00 +12°C° 0 mm 0 mps 657 mmHg 45%
18:00 +13°C° 0 mm 1 mps 658 mmHg 45%
19:00 +12°C° 0 mm 1 mps 658 mmHg 45%
20:00 +12°C° 0 mm 1 mps 658 mmHg 46%
21:00 +12°C° 0 mm 2 mps 658 mmHg 45%
22:00 +12°C° 0 mm 2 mps 658 mmHg 45%
23:00 +10°C° 0 mm 2 mps 658 mmHg 45%

7 December, Monday

Time Temperature Precipitation Wind Pressure Humidity
00:00 +10°C° 0 mm 2 mps 658 mmHg 44%
01:00 +10°C° 0 mm 2 mps 658 mmHg 43%
02:00 +10°C° 0 mm 2 mps 658 mmHg 42%
03:00 +10°C° 0 mm 2 mps 658 mmHg 40%
04:00 +10°C° 0 mm 2 mps 657 mmHg 39%
05:00 +10°C° 0 mm 3 mps 657 mmHg 38%
06:00 +12°C° 0 mm 2 mps 658 mmHg 37%
07:00 +12°C° 0 mm 2 mps 658 mmHg 37%
08:00 +12°C° 0 mm 2 mps 659 mmHg 37%
09:00 +14°C° 0 mm 2 mps 659 mmHg 34%
10:00 +15°C° 0 mm 1 mps 660 mmHg 31%
11:00 +18°C° 0 mm 1 mps 661 mmHg 28%
12:00 +19°C° 0 mm 1 mps 661 mmHg 26%
13:00 +19°C° 0 mm 1 mps 660 mmHg 25%
14:00 +20°C° 0 mm 1 mps 660 mmHg 24%
15:00 +18°C° 0 mm 1 mps 660 mmHg 30%
16:00 +16°C° 0 mm 1 mps 659 mmHg 35%
17:00 +14°C° 0 mm 1 mps 659 mmHg 40%
18:00 +13°C° 0 mm 2 mps 659 mmHg 43%
19:00 +12°C° 0 mm 2 mps 659 mmHg 47%
20:00 +11°C° 0 mm 3 mps 659 mmHg 50%
21:00 +11°C° 0 mm 3 mps 659 mmHg 51%
22:00 +10°C° 0 mm 3 mps 659 mmHg 53%
23:00 +10°C° 0 mm 3 mps 659 mmHg 54%
Show more